Location: Dannhausen
(51.8650°N, 10.1026°E)
Time: 01:20:08
(UTC+00:00)

Cosmos 2233 Rocket - Pass Details

Date: 12 August 2020
Orbit: 952 x 992 km, 82.9° (Epoch: 26 September)

Event Time Altitude Azimuth Distance (km) Brightness Sun altitude
Exits shadow 00:26:50 10° 260° (W) 2,725 6.1 -21.9°
Maximum altitude 00:31:04 19° 303° (WNW) 2,171 6.0 -21.7°
Drops below altitude 10° 00:35:27 10° 347° (NNW) 2,766 7.2 -21.5°
Sets 00:38:51 0° 5° (N) 3,716 8.4 -21.3°
